TimeEDT,TemperatureF,Dew PointF,Humidity,Sea Level PressureIn,VisibilityMPH,Wind Direction,Wind SpeedMPH,Gust SpeedMPH,PrecipitationIn,Events,Conditions,WindDirDegrees,DateUTC
12:52 AM,57.9,41.0,53,30.10,10.0,NW,18.4,-,N/A,,Clear,310,2012-10-11 04:52:00
1:52 AM,57.0,37.0,47,30.11,10.0,NW,21.9,29.9,N/A,,Clear,310,2012-10-11 05:52:00
2:52 AM,55.9,37.0,49,30.13,10.0,NW,15.0,-,N/A,,Clear,320,2012-10-11 06:52:00
3:52 AM,55.0,36.0,49,30.14,10.0,NW,9.2,-,N/A,,Clear,320,2012-10-11 07:52:00
4:52 AM,55.0,34.0,45,30.17,10.0,NW,15.0,24.2,N/A,,Clear,310,2012-10-11 08:52:00
5:19 AM,53.6,35.6,51,30.18,10.0,NW,16.1,-,N/A,,Clear,310,2012-10-11 09:19:00
5:52 AM,53.1,34.0,48,30.20,10.0,NW,15.0,23.0,N/A,,Clear,320,2012-10-11 09:52:00
6:52 AM,52.0,34.0,50,30.22,10.0,NW,13.8,23.0,N/A,,Clear,310,2012-10-11 10:52:00
7:52 AM,51.1,32.0,48,30.25,10.0,NW,17.3,27.6,N/A,,Partly Cloudy,310,2012-10-11 11:52:00
8:52 AM,53.1,32.0,45,30.28,10.0,NW,17.3,25.3,N/A,,Clear,320,2012-10-11 12:52:00
9:52 AM,54.0,32.0,43,30.30,10.0,NW,16.1,-,N/A,,Partly Cloudy,310,2012-10-11 13:52:00
10:52 AM,55.9,30.9,39,30.30,10.0,NW,9.2,-,N/A,,Clear,320,2012-10-11 14:52:00
11:52 AM,57.9,30.9,36,30.30,10.0,WNW,9.2,-,N/A,,Clear,300,2012-10-11 15:52:00
12:52 PM,59.0,30.9,35,30.27,10.0,Variable,5.8,-,N/A,,Clear,0,2012-10-11 16:52:00
1:52 PM,60.1,33.1,36,30.25,10.0,Calm,Calm,-,N/A,,Clear,0,2012-10-11 17:52:00
2:52 PM,60.1,37.0,42,30.24,10.0,Variable,5.8,-,N/A,,Clear,0,2012-10-11 18:52:00
3:52 PM,59.0,37.0,44,30.23,10.0,East,5.8,-,N/A,,Clear,100,2012-10-11 19:52:00
4:52 PM,60.1,35.1,39,30.22,10.0,SSW,5.8,-,N/A,,Clear,210,2012-10-11 20:52:00
5:52 PM,59.0,35.1,41,30.23,10.0,SW,3.5,-,N/A,,Clear,220,2012-10-11 21:52:00
6:52 PM,52.0,39.9,63,30.22,10.0,South,3.5,-,N/A,,Partly Cloudy,190,2012-10-11 22:52:00
7:52 PM,50.0,39.9,68,30.22,10.0,SSE,4.6,-,N/A,,Partly Cloudy,160,2012-10-11 23:52:00
8:52 PM,50.0,39.9,68,30.23,10.0,SSE,4.6,-,N/A,,Clear,150,2012-10-12 00:52:00
9:52 PM,50.0,42.1,74,30.22,10.0,SSE,3.5,-,N/A,,Clear,160,2012-10-12 01:52:00
10:52 PM,44.1,39.9,85,30.21,10.0,Calm,Calm,-,N/A,,Clear,0,2012-10-12 02:52:00
11:52 PM,44.1,41.0,89,30.20,10.0,Calm,Calm,-,N/A,,Clear,0,2012-10-12 03:52:00